Year,Month,Day,Hour,Minute,Value (Times are PST for temperature in C)
2010,04,23,00,00,5.30
2010,04,23,00,01,5.20
2010,04,23,00,02,5.10
2010,04,23,00,03,5.10
2010,04,23,00,04,5.00
2010,04,23,00,05,4.90
2010,04,23,00,06,5.00
2010,04,23,00,07,5.10
2010,04,23,00,08,5.10
2010,04,23,00,09,5.10
2010,04,23,00,10,5.10
2010,04,23,00,11,5.10
2010,04,23,00,12,5.10
2010,04,23,00,13,5.10
2010,04,23,00,14,5.10
2010,04,23,00,15,5.20
2010,04,23,00,16,5.20
2010,04,23,00,17,5.20
2010,04,23,00,18,5.20
2010,04,23,00,19,5.20
2010,04,23,00,20,5.20
2010,04,23,00,21,5.20
2010,04,23,00,22,5.10
2010,04,23,00,23,5.10
2010,04,23,00,24,5.10
2010,04,23,00,25,4.90
2010,04,23,00,26,4.90
2010,04,23,00,27,4.90
2010,04,23,00,28,4.80
2010,04,23,00,29,4.70
2010,04,23,00,30,4.60
2010,04,23,00,31,4.60
2010,04,23,00,32,4.60
2010,04,23,00,33,4.60
2010,04,23,00,34,4.60
2010,04,23,00,35,4.60
2010,04,23,00,36,4.60
2010,04,23,00,37,4.60
2010,04,23,00,38,4.60
2010,04,23,00,39,4.60
2010,04,23,00,40,4.60
2010,04,23,00,41,4.50
2010,04,23,00,42,4.50
2010,04,23,00,43,4.40
2010,04,23,00,44,4.30
2010,04,23,00,45,4.30
2010,04,23,00,46,4.30
2010,04,23,00,47,4.30
2010,04,23,00,48,4.40
2010,04,23,00,49,4.30
2010,04,23,00,50,4.30
2010,04,23,00,51,4.20
2010,04,23,00,52,4.20
2010,04,23,00,53,4.20
2010,04,23,00,54,4.10
2010,04,23,00,55,4.10
2010,04,23,00,56,4.10
2010,04,23,00,57,4.10
2010,04,23,00,58,4.10
2010,04,23,00,59,4.10
2010,04,23,01,00,4.20
2010,04,23,01,01,4.20
2010,04,23,01,02,4.10
2010,04,23,01,03,4.10
2010,04,23,01,04,4.00
2010,04,23,01,05,4.00
2010,04,23,01,06,4.00
2010,04,23,01,07,3.90
2010,04,23,01,08,4.00
2010,04,23,01,09,4.00
2010,04,23,01,10,4.00
2010,04,23,01,11,4.00
2010,04,23,01,12,4.10
2010,04,23,01,13,4.10
2010,04,23,01,14,4.20
2010,04,23,01,15,4.20
2010,04,23,01,16,4.30
2010,04,23,01,17,4.30
2010,04,23,01,18,4.30
2010,04,23,01,19,4.20
2010,04,23,01,20,4.20
2010,04,23,01,21,4.10
2010,04,23,01,22,4.10
2010,04,23,01,23,4.00
2010,04,23,01,24,3.90
2010,04,23,01,25,3.90
2010,04,23,01,26,3.80
2010,04,23,01,27,3.80
2010,04,23,01,28,3.80
2010,04,23,01,29,3.80
2010,04,23,01,30,3.80
2010,04,23,01,31,3.80
2010,04,23,01,32,3.80
2010,04,23,01,33,3.80
2010,04,23,01,34,3.80
2010,04,23,01,35,3.80
2010,04,23,01,36,3.80
2010,04,23,01,37,3.80
2010,04,23,01,38,3.70
2010,04,23,01,39,3.60
2010,04,23,01,40,3.60
2010,04,23,01,41,3.50
2010,04,23,01,42,3.50
2010,04,23,01,43,3.40
2010,04,23,01,44,3.40
2010,04,23,01,45,3.40
2010,04,23,01,46,3.40
2010,04,23,01,47,3.40
2010,04,23,01,48,3.40
2010,04,23,01,49,3.50
2010,04,23,01,50,3.50
2010,04,23,01,51,3.50
2010,04,23,01,52,3.50
2010,04,23,01,53,3.50
2010,04,23,01,54,3.40
2010,04,23,01,55,3.40
2010,04,23,01,56,3.40
2010,04,23,01,57,3.30
2010,04,23,01,58,3.30
2010,04,23,01,59,3.30
2010,04,23,02,00,3.20
2010,04,23,02,01,3.20
2010,04,23,02,02,3.20
2010,04,23,02,03,3.20
2010,04,23,02,04,3.20
2010,04,23,02,05,3.20
2010,04,23,02,06,3.10
2010,04,23,02,07,3.10
2010,04,23,02,08,3.10
2010,04,23,02,09,3.10
2010,04,23,02,10,3.20
2010,04,23,02,11,3.20
2010,04,23,02,12,3.20
2010,04,23,02,13,3.10
2010,04,23,02,14,3.10
2010,04,23,02,15,3.10
2010,04,23,02,16,3.10
2010,04,23,02,17,3.00
2010,04,23,02,18,2.90
2010,04,23,02,19,2.90
2010,04,23,02,20,2.90
2010,04,23,02,21,2.80
2010,04,23,02,22,2.80
2010,04,23,02,23,2.80
2010,04,23,02,24,2.90
2010,04,23,02,25,2.90
2010,04,23,02,26,2.90
2010,04,23,02,27,2.90
2010,04,23,02,28,2.90
2010,04,23,02,29,2.90
2010,04,23,02,30,2.90
2010,04,23,02,31,2.90
2010,04,23,02,32,2.90
2010,04,23,02,33,2.90
2010,04,23,02,34,2.90
2010,04,23,02,35,2.90
2010,04,23,02,36,2.90
2010,04,23,02,37,2.90
2010,04,23,02,38,2.90
2010,04,23,02,39,2.90
2010,04,23,02,40,2.80
2010,04,23,02,41,2.80
2010,04,23,02,42,2.80
2010,04,23,02,43,2.80
2010,04,23,02,44,2.80
2010,04,23,02,45,2.90
2010,04,23,02,46,2.90
2010,04,23,02,47,2.90
2010,04,23,02,48,2.90
2010,04,23,02,49,2.90
2010,04,23,02,50,2.90
2010,04,23,02,51,2.90
2010,04,23,02,52,2.90
2010,04,23,02,53,2.90
2010,04,23,02,54,2.90
2010,04,23,02,55,2.80
2010,04,23,02,56,2.90
2010,04,23,02,57,2.90
2010,04,23,02,58,2.90
2010,04,23,02,59,2.90
2010,04,23,03,00,3.00
2010,04,23,03,01,3.10
2010,04,23,03,02,3.10
2010,04,23,03,03,3.20
2010,04,23,03,04,3.20
2010,04,23,03,05,3.30
2010,04,23,03,06,3.30
2010,04,23,03,07,3.30
2010,04,23,03,08,3.30
2010,04,23,03,09,3.30
2010,04,23,03,10,3.30
2010,04,23,03,11,3.30
2010,04,23,03,12,3.30
2010,04,23,03,13,3.30
2010,04,23,03,14,3.30
2010,04,23,03,15,3.30
2010,04,23,03,16,3.30
2010,04,23,03,17,3.30
2010,04,23,03,18,3.30
2010,04,23,03,19,3.30
2010,04,23,03,20,3.30
2010,04,23,03,21,3.30
2010,04,23,03,22,3.30
2010,04,23,03,23,3.30
2010,04,23,03,24,3.30
2010,04,23,03,25,3.30
2010,04,23,03,26,3.30
2010,04,23,03,27,3.30
2010,04,23,03,28,3.30
2010,04,23,03,29,3.30
2010,04,23,03,30,3.30
2010,04,23,03,31,3.30
2010,04,23,03,32,3.30
2010,04,23,03,33,3.30
2010,04,23,03,34,3.30
2010,04,23,03,35,3.30
2010,04,23,03,36,3.30
2010,04,23,03,37,3.30
2010,04,23,03,38,3.30
2010,04,23,03,39,3.30
2010,04,23,03,40,3.30
2010,04,23,03,41,3.30
2010,04,23,03,42,3.30
2010,04,23,03,43,3.30
2010,04,23,03,44,3.30
2010,04,23,03,45,3.30
2010,04,23,03,46,3.30
2010,04,23,03,47,3.30
2010,04,23,03,48,3.30
2010,04,23,03,49,3.30
2010,04,23,03,50,3.30
2010,04,23,03,51,3.20
2010,04,23,03,52,3.20
2010,04,23,03,53,3.20
2010,04,23,03,54,3.10
2010,04,23,03,55,3.10
2010,04,23,03,56,3.10
2010,04,23,03,57,3.10
2010,04,23,03,58,3.10
2010,04,23,03,59,3.10
2010,04,23,04,00,3.10
2010,04,23,04,01,3.10
2010,04,23,04,02,3.10
2010,04,23,04,03,3.10
2010,04,23,04,04,3.10
2010,04,23,04,05,3.10
2010,04,23,04,06,3.10
2010,04,23,04,07,3.10
2010,04,23,04,08,3.10
2010,04,23,04,09,2.90
2010,04,23,04,10,2.80
2010,04,23,04,11,2.70
2010,04,23,04,12,2.70
2010,04,23,04,13,2.60
2010,04,23,04,14,2.50
2010,04,23,04,15,2.40
2010,04,23,04,16,2.40
2010,04,23,04,17,2.30
2010,04,23,04,18,2.30
2010,04,23,04,19,2.20
2010,04,23,04,20,2.20
2010,04,23,04,21,2.10
2010,04,23,04,22,2.00
2010,04,23,04,23,2.00
2010,04,23,04,24,1.90
2010,04,23,04,25,1.80
2010,04,23,04,26,1.80
2010,04,23,04,27,1.80
2010,04,23,04,28,1.80
2010,04,23,04,29,1.80
2010,04,23,04,30,1.80
2010,04,23,04,31,1.80
2010,04,23,04,32,1.90
2010,04,23,04,33,1.90
2010,04,23,04,34,1.90
2010,04,23,04,35,2.00
2010,04,23,04,36,2.00
2010,04,23,04,37,2.00
2010,04,23,04,38,2.00
2010,04,23,04,39,2.00
2010,04,23,04,40,2.00
2010,04,23,04,41,2.00
2010,04,23,04,42,2.00
2010,04,23,04,43,1.90
2010,04,23,04,44,1.90
2010,04,23,04,45,1.90
2010,04,23,04,46,1.90
2010,04,23,04,47,2.00
2010,04,23,04,48,2.00
2010,04,23,04,49,2.00
2010,04,23,04,50,2.00
2010,04,23,04,51,2.00
2010,04,23,04,52,2.00
2010,04,23,04,53,2.00
2010,04,23,04,54,1.90
2010,04,23,04,55,1.90
2010,04,23,04,56,1.90
2010,04,23,04,57,1.90
2010,04,23,04,58,1.80
2010,04,23,04,59,1.80
2010,04,23,05,00,1.80
2010,04,23,05,01,1.80
2010,04,23,05,02,1.80
2010,04,23,05,03,1.80
2010,04,23,05,04,1.80
2010,04,23,05,05,1.90
2010,04,23,05,06,1.90
2010,04,23,05,07,2.00
2010,04,23,05,08,2.00
2010,04,23,05,09,2.00
2010,04,23,05,10,2.00
2010,04,23,05,11,2.00
2010,04,23,05,12,2.00
2010,04,23,05,13,2.10
2010,04,23,05,14,2.10
2010,04,23,05,15,2.10
2010,04,23,05,16,2.10
2010,04,23,05,17,2.00
2010,04,23,05,18,1.90
2010,04,23,05,19,1.90
2010,04,23,05,20,1.90
2010,04,23,05,21,1.90
2010,04,23,05,22,1.90
2010,04,23,05,23,1.90
2010,04,23,05,24,1.90
2010,04,23,05,25,1.90
2010,04,23,05,26,1.80
2010,04,23,05,27,1.80
2010,04,23,05,28,1.80
2010,04,23,05,29,1.70
2010,04,23,05,30,1.70
2010,04,23,05,31,1.60
2010,04,23,05,32,1.50
2010,04,23,05,33,1.50
2010,04,23,05,34,1.40
2010,04,23,05,35,1.30
2010,04,23,05,36,1.30
2010,04,23,05,37,1.30
2010,04,23,05,38,1.30
2010,04,23,05,39,1.30
2010,04,23,05,40,1.30
2010,04,23,05,41,1.30
2010,04,23,05,42,1.30
2010,04,23,05,43,1.30
2010,04,23,05,44,1.30
2010,04,23,05,45,1.30
2010,04,23,05,46,1.30
2010,04,23,05,47,1.30
2010,04,23,05,48,1.30
2010,04,23,05,49,1.30
2010,04,23,05,50,1.30
2010,04,23,05,51,1.30
2010,04,23,05,52,1.40
2010,04,23,05,53,1.40
2010,04,23,05,54,1.50
2010,04,23,05,55,1.50
2010,04,23,05,56,1.50
2010,04,23,05,57,1.50
2010,04,23,05,58,1.50
2010,04,23,05,59,1.50
2010,04,23,06,00,1.50
2010,04,23,06,01,1.50
2010,04,23,06,02,1.60
2010,04,23,06,03,1.60
2010,04,23,06,04,1.60
2010,04,23,06,05,1.60
2010,04,23,06,06,1.60
2010,04,23,06,07,1.60
2010,04,23,06,08,1.60
2010,04,23,06,09,1.60
2010,04,23,06,10,1.70
2010,04,23,06,11,1.70
2010,04,23,06,12,1.70
2010,04,23,06,13,1.70
2010,04,23,06,14,1.60
2010,04,23,06,15,1.60
2010,04,23,06,16,1.60
2010,04,23,06,17,1.50
2010,04,23,06,18,1.50
2010,04,23,06,19,1.50
2010,04,23,06,20,1.50
2010,04,23,06,21,1.40
2010,04,23,06,22,1.40
2010,04,23,06,23,1.40
2010,04,23,06,24,1.40
2010,04,23,06,25,1.50
2010,04,23,06,26,1.50
2010,04,23,06,27,1.50
2010,04,23,06,28,1.60
2010,04,23,06,29,1.70
2010,04,23,06,30,1.80
2010,04,23,06,31,1.80
2010,04,23,06,32,1.90
2010,04,23,06,33,1.90
2010,04,23,06,34,1.80
2010,04,23,06,35,1.80
2010,04,23,06,36,1.70
2010,04,23,06,37,1.60
2010,04,23,06,38,1.60
2010,04,23,06,39,1.60
2010,04,23,06,40,1.50
2010,04,23,06,41,1.50
2010,04,23,06,42,1.50
2010,04,23,06,43,1.60
2010,04,23,06,44,1.60
2010,04,23,06,45,1.60
2010,04,23,06,46,1.60
2010,04,23,06,47,1.60
2010,04,23,06,48,1.70
2010,04,23,06,49,1.70
2010,04,23,06,50,1.70
2010,04,23,06,51,1.70
2010,04,23,06,52,1.70
2010,04,23,06,53,1.70
2010,04,23,06,54,1.70
2010,04,23,06,55,1.70
2010,04,23,06,56,1.80
2010,04,23,06,57,1.80
2010,04,23,06,58,1.80
2010,04,23,06,59,1.80
2010,04,23,07,00,1.80
2010,04,23,07,01,1.90
2010,04,23,07,02,1.90
2010,04,23,07,03,1.90
2010,04,23,07,04,2.00
2010,04,23,07,05,2.00
2010,04,23,07,06,2.10
2010,04,23,07,07,2.10
2010,04,23,07,08,2.20
2010,04,23,07,09,2.20
2010,04,23,07,10,2.20
2010,04,23,07,11,2.30
2010,04,23,07,12,2.30
2010,04,23,07,13,2.40
2010,04,23,07,14,2.40
2010,04,23,07,15,2.50
2010,04,23,07,16,2.50
2010,04,23,07,17,2.50
2010,04,23,07,18,2.60
2010,04,23,07,19,2.60
2010,04,23,07,20,2.70
2010,04,23,07,21,2.70
2010,04,23,07,22,2.70
2010,04,23,07,23,2.80
2010,04,23,07,24,2.90
2010,04,23,07,25,2.90
2010,04,23,07,26,3.00
2010,04,23,07,27,3.10
2010,04,23,07,28,3.10
2010,04,23,07,29,3.20
2010,04,23,07,30,3.30
2010,04,23,07,31,3.30
2010,04,23,07,32,3.40
2010,04,23,07,33,3.50
2010,04,23,07,34,3.50
2010,04,23,07,35,3.60
2010,04,23,07,36,3.70
2010,04,23,07,37,3.80
2010,04,23,07,38,3.80
2010,04,23,07,39,3.90
2010,04,23,07,40,4.00
2010,04,23,07,41,4.00
2010,04,23,07,42,4.10
2010,04,23,07,43,4.20
2010,04,23,07,44,4.20
2010,04,23,07,45,4.30
2010,04,23,07,46,4.40
2010,04,23,07,47,4.50
2010,04,23,07,48,4.60
2010,04,23,07,49,4.70
2010,04,23,07,50,4.80
2010,04,23,07,51,4.90
2010,04,23,07,52,4.90
2010,04,23,07,53,5.10
2010,04,23,07,54,5.10
2010,04,23,07,55,5.10
2010,04,23,07,56,5.20
2010,04,23,07,57,5.30
2010,04,23,07,58,5.30
2010,04,23,07,59,5.30
2010,04,23,08,00,5.40
2010,04,23,08,01,5.50
2010,04,23,08,02,5.50
2010,04,23,08,03,5.60
2010,04,23,08,04,5.70
2010,04,23,08,05,5.70
2010,04,23,08,06,5.70
2010,04,23,08,07,5.70
2010,04,23,08,08,5.70
2010,04,23,08,09,5.80
2010,04,23,08,10,5.80
2010,04,23,08,11,5.80
2010,04,23,08,12,5.80
2010,04,23,08,13,5.90
2010,04,23,08,14,5.90
2010,04,23,08,15,5.90
2010,04,23,08,16,6.00
2010,04,23,08,17,6.00
2010,04,23,08,18,6.00
2010,04,23,08,19,6.00
2010,04,23,08,20,6.10
2010,04,23,08,21,6.10
2010,04,23,08,22,6.10
2010,04,23,08,23,6.10
2010,04,23,08,24,6.10
2010,04,23,08,25,6.10
2010,04,23,08,26,6.00
2010,04,23,08,27,6.00
2010,04,23,08,28,6.00
2010,04,23,08,29,6.00
2010,04,23,08,30,5.90
2010,04,23,08,31,5.90
2010,04,23,08,32,5.90
2010,04,23,08,33,6.00
2010,04,23,08,34,6.00
2010,04,23,08,35,6.00
2010,04,23,08,36,6.00
2010,04,23,08,37,6.00
2010,04,23,08,38,6.00
2010,04,23,08,39,6.00
2010,04,23,08,40,6.00
2010,04,23,08,41,6.00
2010,04,23,08,42,6.00
2010,04,23,08,43,6.00
2010,04,23,08,44,6.00
2010,04,23,08,45,6.00
2010,04,23,08,46,6.00
2010,04,23,08,47,6.00
2010,04,23,08,48,6.00
2010,04,23,08,49,6.00
2010,04,23,08,50,6.00
2010,04,23,08,51,6.00
2010,04,23,08,52,6.10
2010,04,23,08,53,6.10
2010,04,23,08,54,6.10
2010,04,23,08,55,6.10
2010,04,23,08,56,6.10
2010,04,23,08,57,6.10
2010,04,23,08,58,6.10
2010,04,23,08,59,6.10
2010,04,23,09,00,6.10
2010,04,23,09,01,6.10
2010,04,23,09,02,6.20
2010,04,23,09,03,6.20
2010,04,23,09,04,6.20
2010,04,23,09,05,6.20
2010,04,23,09,06,6.20
2010,04,23,09,07,6.20
2010,04,23,09,08,6.20
2010,04,23,09,09,6.30
2010,04,23,09,10,6.30
2010,04,23,09,11,6.30
2010,04,23,09,12,6.30
2010,04,23,09,13,6.40
2010,04,23,09,14,6.40
2010,04,23,09,15,6.40
2010,04,23,09,16,6.40
2010,04,23,09,17,6.40
2010,04,23,09,18,6.40
2010,04,23,09,19,6.40
2010,04,23,09,20,6.40
2010,04,23,09,21,6.40
2010,04,23,09,22,6.50
2010,04,23,09,23,6.60
2010,04,23,09,24,6.60
2010,04,23,09,25,6.60
2010,04,23,09,26,6.60
2010,04,23,09,27,6.60
2010,04,23,09,28,6.60
2010,04,23,09,29,6.60
2010,04,23,09,30,6.70
2010,04,23,09,31,6.70
2010,04,23,09,32,6.70
2010,04,23,09,33,6.70
2010,04,23,09,34,6.80
2010,04,23,09,35,6.80
2010,04,23,09,36,6.80
2010,04,23,09,37,6.80
2010,04,23,09,38,6.80
2010,04,23,09,39,6.80
2010,04,23,09,40,6.80
2010,04,23,09,41,6.80
2010,04,23,09,42,6.90
2010,04,23,09,43,6.90
2010,04,23,09,44,6.90
2010,04,23,09,45,7.00
2010,04,23,09,46,7.00
2010,04,23,09,47,7.00
2010,04,23,09,48,7.00
2010,04,23,09,49,7.10
2010,04,23,09,50,7.10
2010,04,23,09,51,7.10
2010,04,23,09,52,7.10
2010,04,23,09,53,7.20
2010,04,23,09,54,7.20
2010,04,23,09,55,7.20
2010,04,23,09,56,7.20
2010,04,23,09,57,7.20
2010,04,23,09,58,7.30
2010,04,23,09,59,7.30
2010,04,23,10,00,7.30
2010,04,23,10,01,7.30
2010,04,23,10,02,7.30
2010,04,23,10,03,7.30
2010,04,23,10,04,7.30
2010,04,23,10,05,7.30
2010,04,23,10,06,7.30
2010,04,23,10,07,7.30
2010,04,23,10,08,7.30
2010,04,23,10,09,7.30
2010,04,23,10,10,7.30
2010,04,23,10,11,7.30
2010,04,23,10,12,7.40
2010,04,23,10,13,7.40
2010,04,23,10,14,7.40
2010,04,23,10,15,7.40
2010,04,23,10,16,7.40
2010,04,23,10,17,7.50
2010,04,23,10,18,7.50
2010,04,23,10,19,7.50
2010,04,23,10,20,7.50
2010,04,23,10,21,7.60
2010,04,23,10,22,7.60
2010,04,23,10,23,7.60
2010,04,23,10,24,7.60
2010,04,23,10,25,7.70
2010,04,23,10,26,7.70
2010,04,23,10,27,7.70
2010,04,23,10,28,7.70
2010,04,23,10,29,7.80
2010,04,23,10,30,7.80
2010,04,23,10,31,7.80
2010,04,23,10,32,7.80
2010,04,23,10,33,7.80
2010,04,23,10,34,7.80
2010,04,23,10,35,7.80
2010,04,23,10,36,7.80
2010,04,23,10,37,7.80
2010,04,23,10,38,7.80
2010,04,23,10,39,7.80
2010,04,23,10,40,7.80
2010,04,23,10,41,7.80
2010,04,23,10,42,7.80
2010,04,23,10,43,7.80
2010,04,23,10,44,7.80
2010,04,23,10,45,7.80
2010,04,23,10,46,7.80
2010,04,23,10,47,7.90
2010,04,23,10,48,7.90
2010,04,23,10,49,7.90
2010,04,23,10,50,7.90
2010,04,23,10,51,7.90
2010,04,23,10,52,7.90
2010,04,23,10,53,7.90
2010,04,23,10,54,8.00
2010,04,23,10,55,8.00
2010,04,23,10,56,8.00
2010,04,23,10,57,8.10
2010,04,23,10,58,8.20
2010,04,23,10,59,8.20
2010,04,23,11,00,8.20
2010,04,23,11,01,8.20
2010,04,23,11,02,8.20
2010,04,23,11,03,8.30
2010,04,23,11,04,8.30
2010,04,23,11,05,8.30
2010,04,23,11,06,8.40
2010,04,23,11,07,8.40
2010,04,23,11,08,8.40
2010,04,23,11,09,8.50
2010,04,23,11,10,8.50
2010,04,23,11,11,8.60
2010,04,23,11,12,8.60
2010,04,23,11,13,8.60
2010,04,23,11,14,8.60
2010,04,23,11,15,8.50
2010,04,23,11,16,8.60
2010,04,23,11,17,8.60
2010,04,23,11,18,8.60
2010,04,23,11,19,8.60
2010,04,23,11,20,8.60
2010,04,23,11,21,8.60
2010,04,23,11,22,8.60
2010,04,23,11,23,8.70
2010,04,23,11,24,8.70
2010,04,23,11,25,8.70
2010,04,23,11,26,8.70
2010,04,23,11,27,8.70
2010,04,23,11,28,8.80
2010,04,23,11,29,8.80
2010,04,23,11,30,8.80
2010,04,23,11,31,8.80
2010,04,23,11,32,8.80
2010,04,23,11,33,8.80
2010,04,23,11,34,8.80
2010,04,23,11,35,8.90
2010,04,23,11,36,8.90
2010,04,23,11,37,9.00
2010,04,23,11,38,9.00
2010,04,23,11,39,9.00
2010,04,23,11,40,9.10
2010,04,23,11,41,9.10
2010,04,23,11,42,9.20
2010,04,23,11,43,9.20
2010,04,23,11,44,9.20
2010,04,23,11,45,9.30
2010,04,23,11,46,9.40
2010,04,23,11,47,9.40
2010,04,23,11,48,9.50
2010,04,23,11,49,9.60
2010,04,23,11,50,9.60
2010,04,23,11,51,9.70
2010,04,23,11,52,9.70
2010,04,23,11,53,9.70
2010,04,23,11,54,9.70
2010,04,23,11,55,9.70
2010,04,23,11,56,9.70
2010,04,23,11,57,9.70
2010,04,23,11,58,9.70
2010,04,23,11,59,9.70
2010,04,23,12,00,9.70
2010,04,23,12,01,9.70
2010,04,23,12,02,9.70
2010,04,23,12,03,9.70
2010,04,23,12,04,9.80
2010,04,23,12,05,9.80
2010,04,23,12,06,9.90
2010,04,23,12,07,9.90
2010,04,23,12,08,9.90
2010,04,23,12,09,9.90
2010,04,23,12,10,9.80
2010,04,23,12,11,9.80
2010,04,23,12,12,9.80
2010,04,23,12,13,9.80
2010,04,23,12,14,9.80
2010,04,23,12,15,9.90
2010,04,23,12,16,10.00
2010,04,23,12,17,10.10
2010,04,23,12,18,10.10
2010,04,23,12,19,10.10
2010,04,23,12,20,10.10
2010,04,23,12,21,10.10
2010,04,23,12,22,10.10
2010,04,23,12,23,10.10
2010,04,23,12,24,10.10
2010,04,23,12,25,10.10
2010,04,23,12,26,10.10
2010,04,23,12,27,10.20
2010,04,23,12,28,10.20
2010,04,23,12,29,10.20
2010,04,23,12,30,10.20
2010,04,23,12,31,10.10
2010,04,23,12,32,10.10
2010,04,23,12,33,10.10
2010,04,23,12,34,10.10
2010,04,23,12,35,10.00
2010,04,23,12,36,10.00
2010,04,23,12,37,10.10
2010,04,23,12,38,10.10
2010,04,23,12,39,10.10
2010,04,23,12,40,10.10
2010,04,23,12,41,10.10
2010,04,23,12,42,10.10
2010,04,23,12,43,10.10
2010,04,23,12,44,10.10
2010,04,23,12,45,10.10
2010,04,23,12,46,10.10
2010,04,23,12,47,10.10
2010,04,23,12,48,10.10
2010,04,23,12,49,10.10
2010,04,23,12,50,10.10
2010,04,23,12,51,10.10
2010,04,23,12,52,10.10
2010,04,23,12,53,10.10
2010,04,23,12,54,10.10
2010,04,23,12,55,10.00
2010,04,23,12,56,10.00
2010,04,23,12,57,9.90
2010,04,23,12,58,9.90
2010,04,23,12,59,9.90
2010,04,23,13,00,9.90
2010,04,23,13,01,9.90
2010,04,23,13,02,9.90
2010,04,23,13,03,9.90
2010,04,23,13,04,9.90
2010,04,23,13,05,10.10
2010,04,23,13,06,10.10
2010,04,23,13,07,10.10
2010,04,23,13,08,10.00
2010,04,23,13,09,9.90
2010,04,23,13,10,9.90
2010,04,23,13,11,9.90
2010,04,23,13,12,9.80
2010,04,23,13,13,9.70
2010,04,23,13,14,9.70
2010,04,23,13,15,9.70
2010,04,23,13,16,9.70
2010,04,23,13,17,9.70
2010,04,23,13,18,9.70
2010,04,23,13,19,9.80
2010,04,23,13,20,10.00
2010,04,23,13,21,10.10
2010,04,23,13,22,10.20
2010,04,23,13,23,10.30
2010,04,23,13,24,10.30
2010,04,23,13,25,10.30
2010,04,23,13,26,10.30
2010,04,23,13,27,10.30
2010,04,23,13,28,10.40
2010,04,23,13,29,10.40
2010,04,23,13,30,10.50
2010,04,23,13,31,10.60
2010,04,23,13,32,10.60
2010,04,23,13,33,10.60
2010,04,23,13,34,10.70
2010,04,23,13,35,10.70
2010,04,23,13,36,10.70
2010,04,23,13,37,10.70
2010,04,23,13,38,10.70
2010,04,23,13,39,10.60
2010,04,23,13,40,10.60
2010,04,23,13,41,10.60
2010,04,23,13,42,10.60
2010,04,23,13,43,10.60
2010,04,23,13,44,10.60
2010,04,23,13,45,10.70
2010,04,23,13,46,10.80
2010,04,23,13,47,10.80
2010,04,23,13,48,10.70
2010,04,23,13,49,10.70
2010,04,23,13,50,10.70
2010,04,23,13,51,10.70
2010,04,23,13,52,10.70
2010,04,23,13,53,10.70
2010,04,23,13,54,10.70
2010,04,23,13,55,10.70
2010,04,23,13,56,10.70
2010,04,23,13,57,10.60
2010,04,23,13,58,10.60
2010,04,23,13,59,10.60
2010,04,23,14,00,10.60
2010,04,23,14,01,10.50
2010,04,23,14,02,10.40
2010,04,23,14,03,10.40
2010,04,23,14,04,10.40
2010,04,23,14,05,10.40
2010,04,23,14,06,10.50
2010,04,23,14,07,10.60
2010,04,23,14,08,10.60
2010,04,23,14,09,10.60
2010,04,23,14,10,10.70
2010,04,23,14,11,10.70
2010,04,23,14,12,10.70
2010,04,23,14,13,10.80
2010,04,23,14,14,10.80
2010,04,23,14,15,10.90
2010,04,23,14,16,10.90
2010,04,23,14,17,10.90
2010,04,23,14,18,10.90
2010,04,23,14,19,10.90
2010,04,23,14,20,10.90
2010,04,23,14,21,10.90
2010,04,23,14,22,10.90
2010,04,23,14,23,10.90
2010,04,23,14,24,10.90
2010,04,23,14,25,10.90
2010,04,23,14,26,10.90
2010,04,23,14,27,10.90
2010,04,23,14,28,10.90
2010,04,23,14,29,10.80
2010,04,23,14,30,10.70
2010,04,23,14,31,10.70
2010,04,23,14,32,10.70
2010,04,23,14,33,10.60
2010,04,23,14,34,10.60
2010,04,23,14,35,10.60
2010,04,23,14,36,10.50
2010,04,23,14,37,10.40
2010,04,23,14,38,10.40
2010,04,23,14,39,10.40
2010,04,23,14,40,10.30
2010,04,23,14,41,10.30
2010,04,23,14,42,10.30
2010,04,23,14,43,10.30
2010,04,23,14,44,10.20
2010,04,23,14,45,10.30
2010,04,23,14,46,10.30
2010,04,23,14,47,10.30
2010,04,23,14,48,10.30
2010,04,23,14,49,10.30
2010,04,23,14,50,10.30
2010,04,23,14,51,10.40
2010,04,23,14,52,10.40
2010,04,23,14,53,10.40
2010,04,23,14,54,10.40
2010,04,23,14,55,10.30
2010,04,23,14,56,10.30
2010,04,23,14,57,10.30
2010,04,23,14,58,10.30
2010,04,23,14,59,10.30
2010,04,23,15,00,10.30
2010,04,23,15,01,10.40
2010,04,23,15,02,10.40
2010,04,23,15,03,10.40
2010,04,23,15,04,10.30
2010,04,23,15,05,10.30
2010,04,23,15,06,10.30
2010,04,23,15,07,10.30
2010,04,23,15,08,10.30
2010,04,23,15,09,10.30
2010,04,23,15,10,10.30
2010,04,23,15,11,10.30
2010,04,23,15,12,10.30
2010,04,23,15,13,10.30
2010,04,23,15,14,10.30
2010,04,23,15,15,10.20
2010,04,23,15,16,10.20
2010,04,23,15,17,10.20
2010,04,23,15,18,10.10
2010,04,23,15,19,10.10
2010,04,23,15,20,10.10
2010,04,23,15,21,10.10
2010,04,23,15,22,10.10
2010,04,23,15,23,10.10
2010,04,23,15,24,10.10
2010,04,23,15,25,10.10
2010,04,23,15,26,10.10
2010,04,23,15,27,10.10
2010,04,23,15,28,10.10
2010,04,23,15,29,10.10
2010,04,23,15,30,10.10
2010,04,23,15,31,10.10
2010,04,23,15,32,10.10
2010,04,23,15,33,10.10
2010,04,23,15,34,10.10
2010,04,23,15,35,10.10
2010,04,23,15,36,10.10
2010,04,23,15,37,10.00
2010,04,23,15,38,9.90
2010,04,23,15,39,10.00
2010,04,23,15,40,10.10
2010,04,23,15,41,10.10
2010,04,23,15,42,9.90
2010,04,23,15,43,9.90
2010,04,23,15,44,9.80
2010,04,23,15,45,9.70
2010,04,23,15,46,9.70
2010,04,23,15,47,9.70
2010,04,23,15,48,9.70
2010,04,23,15,49,9.70
2010,04,23,15,50,9.60
2010,04,23,15,51,9.60
2010,04,23,15,52,9.50
2010,04,23,15,53,9.50
2010,04,23,15,54,9.50
2010,04,23,15,55,9.50
2010,04,23,15,56,9.50
2010,04,23,15,57,9.50
2010,04,23,15,58,9.40
2010,04,23,15,59,9.40
2010,04,23,16,00,9.40
2010,04,23,16,01,9.40
2010,04,23,16,02,9.30
2010,04,23,16,03,9.20
2010,04,23,16,04,9.20
2010,04,23,16,05,9.20
2010,04,23,16,06,9.20
2010,04,23,16,07,9.10
2010,04,23,16,08,9.10
2010,04,23,16,09,9.00
2010,04,23,16,10,9.00
2010,04,23,16,11,9.00
2010,04,23,16,12,8.90
2010,04,23,16,13,8.90
2010,04,23,16,14,8.90
2010,04,23,16,15,8.80
2010,04,23,16,16,8.80
2010,04,23,16,17,8.80
2010,04,23,16,18,8.80
2010,04,23,16,19,8.70
2010,04,23,16,20,8.70
2010,04,23,16,21,8.70
2010,04,23,16,22,8.70
2010,04,23,16,23,8.60
2010,04,23,16,24,8.60
2010,04,23,16,25,8.50
2010,04,23,16,26,8.50
2010,04,23,16,27,8.50
2010,04,23,16,28,8.50
2010,04,23,16,29,8.40
2010,04,23,16,30,8.40
2010,04,23,16,31,8.40
2010,04,23,16,32,8.30
2010,04,23,16,33,8.30
2010,04,23,16,34,8.30
2010,04,23,16,35,8.30
2010,04,23,16,36,8.40
2010,04,23,16,37,8.40
2010,04,23,16,38,8.40
2010,04,23,16,39,8.40
2010,04,23,16,40,8.40
2010,04,23,16,41,8.30
2010,04,23,16,42,8.30
2010,04,23,16,43,8.40
2010,04,23,16,44,8.40
2010,04,23,16,45,8.40
2010,04,23,16,46,8.30
2010,04,23,16,47,8.40
2010,04,23,16,48,8.40
2010,04,23,16,49,8.40
2010,04,23,16,50,8.50
2010,04,23,16,51,8.50
2010,04,23,16,52,8.50
2010,04,23,16,53,8.50
2010,04,23,16,54,8.60
2010,04,23,16,55,8.60
2010,04,23,16,56,8.60
2010,04,23,16,57,8.50
2010,04,23,16,58,8.50
2010,04,23,16,59,8.60
2010,04,23,17,00,8.60
2010,04,23,17,01,8.60
2010,04,23,17,02,8.60
2010,04,23,17,03,8.60
2010,04,23,17,04,8.60
2010,04,23,17,05,8.60
2010,04,23,17,06,8.70
2010,04,23,17,07,8.70
2010,04,23,17,08,8.80
2010,04,23,17,09,8.80
2010,04,23,17,10,8.90
2010,04,23,17,11,8.90
2010,04,23,17,12,8.80
2010,04,23,17,13,8.80
2010,04,23,17,14,8.80
2010,04,23,17,15,8.70
2010,04,23,17,16,8.70
2010,04,23,17,17,8.70
2010,04,23,17,18,8.70
2010,04,23,17,19,8.60
2010,04,23,17,20,8.60
2010,04,23,17,21,8.60
2010,04,23,17,22,8.70
2010,04,23,17,23,8.70
2010,04,23,17,24,8.70
2010,04,23,17,25,8.70
2010,04,23,17,26,8.70
2010,04,23,17,27,8.70
2010,04,23,17,28,8.70
2010,04,23,17,29,8.70
2010,04,23,17,30,8.70
2010,04,23,17,31,8.80
2010,04,23,17,32,8.80
2010,04,23,17,33,8.80
2010,04,23,17,34,8.90
2010,04,23,17,35,8.90
2010,04,23,17,36,8.90
2010,04,23,17,37,8.90
2010,04,23,17,38,8.90
2010,04,23,17,39,8.90
2010,04,23,17,40,8.90
2010,04,23,17,41,8.90
2010,04,23,17,42,8.90
2010,04,23,17,43,8.90
2010,04,23,17,44,8.90
2010,04,23,17,45,8.80
2010,04,23,17,46,8.80
2010,04,23,17,47,8.80
2010,04,23,17,48,8.80
2010,04,23,17,49,8.80
2010,04,23,17,50,8.80
2010,04,23,17,51,8.80
2010,04,23,17,52,8.80
2010,04,23,17,53,8.80
2010,04,23,17,54,8.80
2010,04,23,17,55,8.80
2010,04,23,17,56,8.80
2010,04,23,17,57,8.80
2010,04,23,17,58,8.80